Flag for Norway Weather past 2 weeks in Fredrikstad, Norway

Now
30 °F

Light fog.


Feels Like: 30 °F
Forecast: 28 / 44 °F
Wind: 2 mph from North

Location: Rygge

Current Time: Mar 28, 2015 at 12:03:53 AM

Latest Report: Mar 27, 2015 at 11:20 PM


Visibility: 0 mi

Pressure: 29.89 "Hg

Humidity: 93%

Dew point: 28 °F

Location of FredrikstadLocation

Historic Weather in Fredrikstad — Graph

°F

Fredrikstad temperature yesterday

Maximum temperature yesterday: 37 °F (at 10:50 AM)
Minimum temperature yesterday: 32 °F (at 3:20 AM)
Average temperature yesterday: 35 °F

Past Weeks' High & Low Weather Summary

 TemperatureHumidityPressure
High52 °F (Mar 24, 1:20 PM)100% (Mar 12, 10:50 PM)30.86 "Hg (Mar 12, 10:50 PM)
Low25 °F (Mar 13, 6:20 AM)25% (Mar 13, 2:20 PM)29.50 "Hg (Mar 23, 3:20 PM)
Average37 °F78%30.27 "Hg
* Reported Mar 12 10:20 PM — Mar 27 10:50 PM, Fredrikstad, Weather by CustomWeather, © 2015

Note: Actual official high and low records may vary slightly from our data, if they occured in-between our weather recording intervals... More about our weather records

Advertising

Fredrikstad weather history for previous 24 hours

 ConditionsComfort  
Time TempWeatherWind HumidityBarometerVisibility
10:50 PM
Fri, Mar 27
34 °FFog.3 mph100%29.86 "Hg2 mi
10:20 PM32 °FIce fog.2 mph100%29.86 "Hg2 mi
9:50 PM32 °FIce fog.2 mph100%29.86 "Hg2 mi
9:20 PM36 °FPassing clouds.6 mph93%29.86 "HgN/A
8:50 PM36 °FPartly cloudy.5 mph93%29.86 "HgN/A
8:20 PM36 °FPassing clouds.7 mph93%29.86 "HgN/A
7:50 PM36 °FPassing clouds.7 mph93%29.86 "HgN/A
7:20 PM36 °FPassing clouds.6 mph93%29.86 "HgN/A
6:50 PM36 °FPassing clouds.7 mph93%29.83 "HgN/A
6:20 PM36 °FBroken clouds.6 mph93%29.83 "HgN/A
5:50 PM37 °FPassing clouds.7 mph87%29.83 "HgN/A
5:20 PM37 °FPassing clouds.8 mph87%29.83 "HgN/A
4:50 PM37 °FPartly sunny.8 mph87%29.80 "HgN/A
4:20 PM37 °FSunny.7 mph87%29.80 "Hg10 mi
3:50 PM37 °FPartly sunny.9 mph87%29.80 "HgN/A
3:20 PM37 °FScattered clouds.7 mph93%29.80 "HgN/A
2:50 PM37 °FBroken clouds.6 mph87%29.80 "HgN/A
2:20 PM37 °FBroken clouds.7 mph87%29.80 "HgN/A
1:50 PM37 °FPartly sunny.6 mph87%29.80 "HgN/A
1:20 PM37 °FPartly sunny.6 mph87%29.80 "HgN/A
12:50 PM37 °FPartly sunny.6 mph93%29.80 "HgN/A
12:20 PM37 °FBroken clouds.5 mph93%29.80 "HgN/A
11:50 AM37 °FBroken clouds.5 mph93%29.80 "Hg3 mi
11:20 AM37 °FFog.3 mph93%29.77 "Hg1 mi
10:50 AM37 °FPartly sunny.3 mph93%29.77 "Hg1 mi
10:20 AM36 °FFog.3 mph100%29.77 "Hg0 mi
9:50 AM36 °FFog.5 mph100%29.77 "Hg1 mi
9:20 AM36 °FFog.3 mph100%29.77 "Hg1 mi
8:50 AM34 °FFog.3 mph100%29.77 "Hg1 mi
8:20 AM34 °FDense fog.3 mph100%29.77 "Hg1 mi
7:50 AM34 °FFog.2 mph100%29.77 "Hg1 mi
7:20 AM34 °FFog.3 mph100%29.77 "Hg1 mi
6:50 AM34 °FFog.1 mph100%29.74 "Hg1 mi
6:20 AM34 °FFog.3 mph100%29.74 "Hg1 mi
5:50 AM34 °FFog.3 mph100%29.74 "Hg0 mi
5:20 AM34 °FFog.2 mph100%29.74 "Hg0 mi
4:50 AM34 °FFog.2 mph100%29.74 "Hg0 mi
3:50 AM34 °FFog.3 mph100%29.74 "Hg0 mi
3:20 AM32 °FFog.No wind100%29.74 "Hg0 mi
2:50 AM34 °FFog.No wind100%29.71 "Hg0 mi
2:20 AM34 °FFog.2 mph100%29.71 "Hg0 mi
1:50 AM34 °FFog.2 mph100%29.71 "Hg0 mi
1:20 AM34 °FFog.2 mph100%29.74 "Hg0 mi
12:50 AM34 °FFog.3 mph100%29.71 "Hg0 mi
12:20 AM34 °FFog.2 mph100%29.71 "Hg0 mi
Weather by CustomWeather, © 2015

See weather overviewHow to use our weather pages